Time,TemperatureF,DewpointF,PressureIn,WindDirection,WindDirectionDegrees,WindSpeedMPH,WindSpeedGustMPH,Humidity,HourlyPrecipIn,Conditions,Clouds,dailyrainin,SoftwareType,DateUTC
2013-04-10 00:02:00,44.0,41.0,-100.00,NNE,30,11.0,19.0,88,-99.99,,,-99.99,,2013-04-10 05:02:00,
2013-04-10 00:13:00,44.0,41.0,-100.00,NE,45,4.0,15.0,90,-99.99,,,-99.99,,2013-04-10 05:13:00,
2013-04-10 00:23:00,43.0,41.0,-100.00,NNE,25,8.0,17.0,92,-99.99,,,-99.99,,2013-04-10 05:23:00,
2013-04-10 00:33:00,43.0,41.0,-100.00,NNE,25,8.0,17.0,92,-99.99,,,-99.99,,2013-04-10 05:33:00,
2013-04-10 00:42:00,43.0,41.0,-100.00,NNE,25,6.0,16.0,92,-99.99,,,-99.99,,2013-04-10 05:42:00,
2013-04-10 00:53:00,43.0,41.0,-100.00,NE,35,6.0,18.0,92,-99.99,,,-99.99,,2013-04-10 05:53:00,
2013-04-10 01:03:00,43.0,41.0,-100.00,NE,35,6.0,18.0,92,-99.99,,,-99.99,,2013-04-10 06:03:00,
2013-04-10 01:12:00,43.0,41.0,-100.00,NE,45,9.0,16.0,91,-99.99,,,-99.99,,2013-04-10 06:12:00,
2013-04-10 01:22:00,43.0,41.0,-100.00,NE,55,2.0,10.0,91,-99.99,,,-99.99,,2013-04-10 06:22:00,
2013-04-10 01:32:00,43.0,41.0,-100.00,NE,55,2.0,10.0,91,-99.99,,,-99.99,,2013-04-10 06:32:00,
2013-04-10 01:42:00,43.0,40.0,-100.00,ENE,65,9.0,18.0,90,-99.99,,,-99.99,,2013-04-10 06:42:00,
2013-04-10 01:52:00,43.0,40.0,-100.00,NE,45,8.0,14.0,89,-99.99,,,-99.99,,2013-04-10 06:52:00,
2013-04-10 02:02:00,43.0,40.0,-100.00,NE,45,8.0,14.0,89,-99.99,,,-99.99,,2013-04-10 07:02:00,
2013-04-10 02:12:00,43.0,41.0,-100.00,NE,35,10.0,18.0,90,-99.99,,,-99.99,,2013-04-10 07:12:00,
2013-04-10 02:22:00,43.0,40.0,-100.00,NE,55,7.0,17.0,89,-99.99,,,-99.99,,2013-04-10 07:22:00,
2013-04-10 02:32:00,43.0,40.0,-100.00,NE,55,7.0,17.0,89,-99.99,,,-99.99,,2013-04-10 07:32:00,
2013-04-10 02:42:00,43.0,41.0,-100.00,NNE,20,7.0,14.0,90,-99.99,,,-99.99,,2013-04-10 07:42:00,
2013-04-10 02:52:00,43.0,41.0,-100.00,North,5,8.0,16.0,90,-99.99,,,-99.99,,2013-04-10 07:52:00,
2013-04-10 03:02:00,43.0,41.0,-100.00,North,5,8.0,16.0,90,-99.99,,,-99.99,,2013-04-10 08:02:00,
2013-04-10 03:12:00,43.0,41.0,-100.00,North,5,8.0,16.0,90,-99.99,,,-99.99,,2013-04-10 08:12:00,
2013-04-10 03:22:00,43.0,40.0,-100.00,NNE,20,9.0,16.0,90,-99.99,,,-99.99,,2013-04-10 08:22:00,
2013-04-10 03:32:00,43.0,40.0,-100.00,NNE,20,9.0,16.0,90,-99.99,,,-99.99,,2013-04-10 08:32:00,
2013-04-10 03:42:00,42.0,40.0,-100.00,NNE,25,10.0,18.0,90,-99.99,,,-99.99,,2013-04-10 08:42:00,
2013-04-10 03:52:00,42.0,40.0,-100.00,NNE,20,4.0,14.0,91,-99.99,,,-99.99,,2013-04-10 08:52:00,
2013-04-10 04:02:00,42.0,40.0,-100.00,NNE,20,4.0,14.0,91,-99.99,,,-99.99,,2013-04-10 09:02:00,
2013-04-10 04:12:00,42.0,40.0,-100.00,NE,50,9.0,19.0,91,-99.99,,,-99.99,,2013-04-10 09:12:00,
2013-04-10 04:22:00,42.0,40.0,-100.00,North,5,7.0,14.0,91,-99.99,,,-99.99,,2013-04-10 09:22:00,
2013-04-10 04:32:00,42.0,40.0,-100.00,North,5,7.0,14.0,91,-99.99,,,-99.99,,2013-04-10 09:32:00,
2013-04-10 04:43:00,43.0,40.0,-100.00,NNW,330,16.0,29.0,91,-99.99,,,-99.99,,2013-04-10 09:43:00,
2013-04-10 04:53:00,43.0,41.0,-100.00,NW,305,11.0,23.0,93,-99.99,,,-99.99,,2013-04-10 09:53:00,
2013-04-10 05:03:00,43.0,41.0,-100.00,NW,305,11.0,23.0,93,-99.99,,,-99.99,,2013-04-10 10:03:00,
2013-04-10 05:13:00,41.0,40.0,-100.00,North,0,14.0,27.0,94,-99.99,,,-99.99,,2013-04-10 10:13:00,
2013-04-10 05:23:00,41.0,40.0,-100.00,North,0,21.0,30.0,95,-99.99,,,-99.99,,2013-04-10 10:23:00,
2013-04-10 05:33:00,41.0,40.0,-100.00,North,0,21.0,30.0,95,-99.99,,,-99.99,,2013-04-10 10:33:00,
2013-04-10 05:42:00,40.0,39.0,-100.00,NNE,15,14.0,31.0,94,-99.99,,,-99.99,,2013-04-10 10:42:00,
2013-04-10 05:52:00,40.0,39.0,-100.00,NNE,15,10.0,28.0,95,-99.99,,,-99.99,,2013-04-10 10:52:00,
2013-04-10 06:02:00,40.0,39.0,-100.00,NNE,15,10.0,28.0,95,-99.99,,,-99.99,,2013-04-10 11:02:00,
2013-04-10 06:12:00,40.0,39.0,-100.00,West,270,24.0,36.0,95,-99.99,,,-99.99,,2013-04-10 11:12:00,
2013-04-10 06:22:00,38.0,37.0,-100.00,NNE,30,7.0,-999.0,96,-99.99,,,-99.99,,2013-04-10 11:22:00,
2013-04-10 06:32:00,38.0,37.0,-100.00,NNE,30,7.0,-999.0,96,-99.99,,,-99.99,,2013-04-10 11:32:00,
2013-04-10 06:42:00,38.0,37.0,-100.00,NNE,20,14.0,29.0,97,-99.99,,,-99.99,,2013-04-10 11:42:00,
2013-04-10 06:53:00,37.0,36.0,-100.00,ESE,115,9.0,24.0,97,-99.99,,,-99.99,,2013-04-10 11:53:00,
2013-04-10 07:03:00,37.0,36.0,-100.00,ESE,115,9.0,24.0,97,-99.99,,,-99.99,,2013-04-10 12:03:00,
2013-04-10 07:12:00,37.0,36.0,-100.00,ENE,60,8.0,19.0,97,-99.99,,,-99.99,,2013-04-10 12:12:00,
2013-04-10 07:23:00,37.0,36.0,-100.00,NNE,30,10.0,21.0,96,-99.99,,,-99.99,,2013-04-10 12:23:00,
2013-04-10 07:33:00,37.0,36.0,-100.00,NNE,30,10.0,21.0,96,-99.99,,,-99.99,,2013-04-10 12:33:00,
2013-04-10 07:42:00,37.0,36.0,-100.00,NE,40,6.0,14.0,95,-99.99,,,-99.99,,2013-04-10 12:42:00,
2013-04-10 07:52:00,38.0,36.0,-100.00,North,5,1.0,16.0,94,-99.99,,,-99.99,,2013-04-10 12:52:00,
2013-04-10 08:02:00,38.0,36.0,-100.00,North,5,1.0,16.0,94,-99.99,,,-99.99,,2013-04-10 13:02:00,
2013-04-10 08:12:00,38.0,36.0,-100.00,NE,35,8.0,12.0,93,-99.99,,,-99.99,,2013-04-10 13:12:00,
2013-04-10 08:23:00,39.0,37.0,-100.00,ENE,70,1.0,14.0,93,-99.99,,,-99.99,,2013-04-10 13:23:00,
2013-04-10 08:32:00,39.0,37.0,-100.00,ENE,70,1.0,14.0,93,-99.99,,,-99.99,,2013-04-10 13:32:00,
2013-04-10 08:43:00,39.0,37.0,-100.00,NNE,25,4.0,9.0,92,-99.99,,,-99.99,,2013-04-10 13:43:00,
2013-04-10 08:53:00,40.0,37.0,-100.00,NNE,30,1.0,10.0,92,-99.99,,,-99.99,,2013-04-10 13:53:00,
2013-04-10 09:02:00,40.0,37.0,-100.00,NNE,30,1.0,10.0,92,-99.99,,,-99.99,,2013-04-10 14:02:00,
2013-04-10 09:12:00,40.0,38.0,-100.00,NW,315,0.0,13.0,92,-99.99,,,-99.99,,2013-04-10 14:12:00,
2013-04-10 09:22:00,40.0,38.0,-100.00,South,180,0.0,5.0,93,-99.99,,,-99.99,,2013-04-10 14:22:00,
2013-04-10 09:30:00,40.0,38.0,-100.00,NW,325,10.0,14.0,94,-99.99,,,-99.99,,2013-04-10 14:30:00,
2013-04-10 09:32:00,40.0,38.0,-100.00,South,180,0.0,5.0,93,-99.99,,,-99.99,,2013-04-10 14:32:00,
2013-04-10 09:42:00,40.0,38.0,-100.00,WSW,255,4.0,5.0,94,-99.99,,,-99.99,,2013-04-10 14:42:00,
2013-04-10 09:52:00,40.0,39.0,-100.00,NW,325,2.0,5.0,94,-99.99,,,-99.99,,2013-04-10 14:52:00,
2013-04-10 10:02:00,40.0,39.0,-100.00,NW,325,2.0,5.0,94,-99.99,,,-99.99,,2013-04-10 15:02:00,
2013-04-10 10:12:00,40.0,38.0,-100.00,NW,325,10.0,14.0,94,-99.99,,,-99.99,,2013-04-10 15:12:00,
2013-04-10 10:22:00,40.0,38.0,-100.00,NW,325,10.0,14.0,94,-99.99,,,-99.99,,2013-04-10 15:22:00,
2013-04-10 10:30:00,40.0,38.0,-100.00,North,355,9.0,18.0,92,-99.99,,,-99.99,,2013-04-10 15:30:00,
2013-04-10 10:52:00,40.0,38.0,-100.00,North,0,3.0,12.0,94,-99.99,,,-99.99,,2013-04-10 15:52:00,
2013-04-10 11:03:00,40.0,38.0,-100.00,North,0,3.0,12.0,94,-99.99,,,-99.99,,2013-04-10 16:03:00,
2013-04-10 11:13:00,40.0,38.0,-100.00,North,355,9.0,18.0,92,-99.99,,,-99.99,,2013-04-10 16:13:00,
2013-04-10 11:23:00,40.0,38.0,-100.00,North,355,9.0,18.0,92,-99.99,,,-99.99,,2013-04-10 16:23:00,
2013-04-10 11:43:00,40.0,38.0,-100.00,NNE,30,4.0,10.0,92,-99.99,,,-99.99,,2013-04-10 16:43:00,
2013-04-10 11:53:00,40.0,38.0,-100.00,NNE,30,8.0,13.0,92,-99.99,,,-99.99,,2013-04-10 16:53:00,
2013-04-10 12:02:00,40.0,38.0,-100.00,NNE,30,8.0,13.0,92,-99.99,,,-99.99,,2013-04-10 17:02:00,
2013-04-10 12:12:00,40.0,38.0,-100.00,NE,45,8.0,16.0,92,-99.99,,,-99.99,,2013-04-10 17:12:00,
2013-04-10 12:22:00,41.0,38.0,-100.00,North,10,7.0,19.0,90,-99.99,,,-99.99,,2013-04-10 17:22:00,
2013-04-10 12:33:00,41.0,38.0,-100.00,North,10,7.0,19.0,90,-99.99,,,-99.99,,2013-04-10 17:33:00,
2013-04-10 12:43:00,41.0,38.0,-100.00,North,10,7.0,19.0,90,-99.99,,,-99.99,,2013-04-10 17:43:00,
2013-04-10 12:53:00,41.0,39.0,-100.00,ENE,70,1.0,9.0,90,-99.99,,,-99.99,,2013-04-10 17:53:00,
2013-04-10 13:03:00,41.0,39.0,-100.00,ENE,70,1.0,9.0,90,-99.99,,,-99.99,,2013-04-10 18:03:00,
2013-04-10 13:12:00,41.0,39.0,-100.00,ESE,120,1.0,10.0,90,-99.99,,,-99.99,,2013-04-10 18:12:00,
2013-04-10 13:23:00,41.0,39.0,-100.00,SW,220,0.0,3.0,91,-99.99,,,-99.99,,2013-04-10 18:23:00,
2013-04-10 13:33:00,41.0,39.0,-100.00,SW,220,0.0,3.0,91,-99.99,,,-99.99,,2013-04-10 18:33:00,
2013-04-10 13:42:00,41.0,39.0,-100.00,NNE,20,4.0,8.0,92,-99.99,,,-99.99,,2013-04-10 18:42:00,
2013-04-10 13:53:00,41.0,39.0,-100.00,NNE,20,2.0,11.0,93,-99.99,,,-99.99,,2013-04-10 18:53:00,
2013-04-10 14:03:00,41.0,39.0,-100.00,NNE,20,2.0,11.0,93,-99.99,,,-99.99,,2013-04-10 19:03:00,
2013-04-10 14:12:00,42.0,40.0,-100.00,North,0,8.0,20.0,93,-99.99,,,-99.99,,2013-04-10 19:12:00,
2013-04-10 14:22:00,41.0,39.0,-100.00,North,0,11.0,21.0,93,-99.99,,,-99.99,,2013-04-10 19:22:00,
2013-04-10 14:33:00,41.0,39.0,-100.00,North,0,11.0,21.0,93,-99.99,,,-99.99,,2013-04-10 19:33:00,
2013-04-10 14:42:00,41.0,40.0,-100.00,North,0,6.0,23.0,94,-99.99,,,-99.99,,2013-04-10 19:42:00,
2013-04-10 14:53:00,41.0,39.0,-100.00,North,355,8.0,16.0,94,-99.99,,,-99.99,,2013-04-10 19:53:00,
2013-04-10 15:03:00,41.0,39.0,-100.00,North,355,8.0,16.0,94,-99.99,,,-99.99,,2013-04-10 20:03:00,
2013-04-10 15:12:00,41.0,39.0,-100.00,NNW,335,9.0,14.0,94,-99.99,,,-99.99,,2013-04-10 20:12:00,
2013-04-10 15:23:00,41.0,39.0,-100.00,North,10,7.0,18.0,94,-99.99,,,-99.99,,2013-04-10 20:23:00,
2013-04-10 15:33:00,41.0,39.0,-100.00,North,10,7.0,18.0,94,-99.99,,,-99.99,,2013-04-10 20:33:00,
2013-04-10 15:42:00,41.0,40.0,-100.00,ENE,70,1.0,18.0,95,-99.99,,,-99.99,,2013-04-10 20:42:00,
2013-04-10 15:52:00,41.0,40.0,-100.00,NNE,30,6.0,11.0,95,-99.99,,,-99.99,,2013-04-10 20:52:00,
2013-04-10 16:03:00,42.0,41.0,-100.00,North,10,6.0,14.0,95,-99.99,,,-99.99,,2013-04-10 21:03:00,
2013-04-10 16:13:00,42.0,41.0,-100.00,North,10,6.0,14.0,95,-99.99,,,-99.99,,2013-04-10 21:13:00,
2013-04-10 16:22:00,42.0,40.0,-100.00,NNE,15,14.0,23.0,93,-99.99,,,-99.99,,2013-04-10 21:22:00,
2013-04-10 16:33:00,42.0,40.0,-100.00,NNE,15,14.0,23.0,93,-99.99,,,-99.99,,2013-04-10 21:33:00,
2013-04-10 16:43:00,42.0,40.0,-100.00,NE,40,6.0,16.0,93,-99.99,,,-99.99,,2013-04-10 21:43:00,
2013-04-10 16:53:00,42.0,40.0,-100.00,NNE,25,10.0,20.0,93,-99.99,,,-99.99,,2013-04-10 21:53:00,
2013-04-10 17:03:00,42.0,40.0,-100.00,NE,55,6.0,14.0,93,-99.99,,,-99.99,,2013-04-10 22:03:00,
2013-04-10 17:13:00,42.0,40.0,-100.00,NE,55,6.0,14.0,93,-99.99,,,-99.99,,2013-04-10 22:13:00,
2013-04-10 17:23:00,42.0,40.0,-100.00,NE,50,6.0,19.0,93,-99.99,,,-99.99,,2013-04-10 22:23:00,
2013-04-10 17:33:00,42.0,40.0,-100.00,NE,50,6.0,19.0,93,-99.99,,,-99.99,,2013-04-10 22:33:00,
2013-04-10 17:42:00,43.0,41.0,-100.00,NE,35,9.0,15.0,93,-99.99,,,-99.99,,2013-04-10 22:42:00,
2013-04-10 17:53:00,43.0,41.0,-100.00,NNE,20,9.0,15.0,93,-99.99,,,-99.99,,2013-04-10 22:53:00,
2013-04-10 18:03:00,43.0,41.0,-100.00,NNE,20,9.0,15.0,93,-99.99,,,-99.99,,2013-04-10 23:03:00,
2013-04-10 18:12:00,43.0,41.0,-100.00,NNE,25,11.0,20.0,92,-99.99,,,-99.99,,2013-04-10 23:12:00,
2013-04-10 18:22:00,43.0,40.0,-100.00,NE,35,10.0,24.0,91,-99.99,,,-99.99,,2013-04-10 23:22:00,
2013-04-10 18:33:00,43.0,40.0,-100.00,NE,35,10.0,24.0,91,-99.99,,,-99.99,,2013-04-10 23:33:00,
2013-04-10 18:42:00,42.0,40.0,-100.00,NE,45,14.0,28.0,90,-99.99,,,-99.99,,2013-04-10 23:42:00,
2013-04-10 18:53:00,42.0,39.0,-100.00,East,95,6.0,21.0,89,-99.99,,,-99.99,,2013-04-10 23:53:00,
2013-04-10 19:02:00,42.0,39.0,-100.00,East,95,6.0,21.0,89,-99.99,,,-99.99,,2013-04-11 00:02:00,
2013-04-10 19:12:00,42.0,40.0,-100.00,NNE,25,4.0,15.0,90,-99.99,,,-99.99,,2013-04-11 00:12:00,
2013-04-10 19:22:00,42.0,39.0,-100.00,ENE,65,11.0,24.0,89,-99.99,,,-99.99,,2013-04-11 00:22:00,
2013-04-10 19:32:00,42.0,39.0,-100.00,ENE,65,11.0,24.0,89,-99.99,,,-99.99,,2013-04-11 00:32:00,
2013-04-10 19:42:00,42.0,39.0,-100.00,NE,35,8.0,21.0,91,-99.99,,,-99.99,,2013-04-11 00:42:00,
2013-04-10 19:53:00,41.0,39.0,-100.00,North,10,9.0,19.0,92,-99.99,,,-99.99,,2013-04-11 00:53:00,
2013-04-10 20:02:00,41.0,39.0,-100.00,North,10,9.0,19.0,92,-99.99,,,-99.99,,2013-04-11 01:02:00,
2013-04-10 20:12:00,41.0,39.0,-100.00,NE,40,10.0,16.0,93,-99.99,,,-99.99,,2013-04-11 01:12:00,
2013-04-10 20:22:00,41.0,40.0,-100.00,NE,40,5.0,15.0,95,-99.99,,,-99.99,,2013-04-11 01:22:00,
2013-04-10 20:32:00,41.0,40.0,-100.00,NE,40,5.0,15.0,95,-99.99,,,-99.99,,2013-04-11 01:32:00,
2013-04-10 20:42:00,41.0,40.0,-100.00,NNE,20,8.0,18.0,96,-99.99,,,-99.99,,2013-04-11 01:42:00,
2013-04-10 20:52:00,41.0,40.0,-100.00,NNE,30,11.0,20.0,97,-99.99,,,-99.99,,2013-04-11 01:52:00,
2013-04-10 21:03:00,40.0,40.0,-100.00,NNE,25,11.0,20.0,97,-99.99,,,-99.99,,2013-04-11 02:03:00,
2013-04-10 21:12:00,40.0,40.0,-100.00,NNE,25,11.0,20.0,97,-99.99,,,-99.99,,2013-04-11 02:12:00,
2013-04-10 21:22:00,40.0,40.0,-100.00,NNE,30,6.0,19.0,97,-99.99,,,-99.99,,2013-04-11 02:22:00,
2013-04-10 21:32:00,40.0,40.0,-100.00,NNE,30,6.0,19.0,97,-99.99,,,-99.99,,2013-04-11 02:32:00,
2013-04-10 21:42:00,40.0,40.0,-100.00,NNE,30,6.0,19.0,97,-99.99,,,-99.99,,2013-04-11 02:42:00,
2013-04-10 21:53:00,40.0,40.0,-100.00,NNE,30,11.0,18.0,97,-99.99,,,-99.99,,2013-04-11 02:53:00,
2013-04-10 22:02:00,40.0,40.0,-100.00,NNE,30,11.0,18.0,97,-99.99,,,-99.99,,2013-04-11 03:02:00,
2013-04-10 22:12:00,40.0,40.0,-100.00,NE,35,9.0,20.0,98,-99.99,,,-99.99,,2013-04-11 03:12:00,
2013-04-10 22:22:00,40.0,39.0,-100.00,North,10,4.0,21.0,97,-99.99,,,-99.99,,2013-04-11 03:22:00,
2013-04-10 22:33:00,40.0,39.0,-100.00,North,10,4.0,21.0,97,-99.99,,,-99.99,,2013-04-11 03:33:00,
2013-04-10 22:43:00,40.0,39.0,-100.00,NE,45,8.0,16.0,97,-99.99,,,-99.99,,2013-04-11 03:43:00,
2013-04-10 22:53:00,40.0,39.0,-100.00,NE,40,10.0,18.0,97,-99.99,,,-99.99,,2013-04-11 03:53:00,
2013-04-10 23:03:00,40.0,39.0,-100.00,NE,40,10.0,18.0,97,-99.99,,,-99.99,,2013-04-11 04:03:00,
2013-04-10 23:13:00,40.0,39.0,-100.00,North,10,2.0,16.0,97,-99.99,,,-99.99,,2013-04-11 04:13:00,
2013-04-10 23:22:00,40.0,39.0,-100.00,NE,40,9.0,16.0,97,-99.99,,,-99.99,,2013-04-11 04:22:00,
2013-04-10 23:33:00,40.0,39.0,-100.00,NE,40,9.0,16.0,97,-99.99,,,-99.99,,2013-04-11 04:33:00,
2013-04-10 23:42:00,40.0,39.0,-100.00,NE,40,8.0,15.0,97,-99.99,,,-99.99,,2013-04-11 04:42:00,
2013-04-10 23:53:00,40.0,39.0,-100.00,NNE,20,16.0,33.0,97,-99.99,,,-99.99,,2013-04-11 04:53:00,